{"data":{"norad_id":66060,"epoch":"2026-05-25T00:25:50.005632Z","epoch_age_seconds":70125,"freshness":"FRESH","line1":"1 66060U 25235C   26145.01793988  .00015989  00000+0  55045-3 0  9991","line2":"2 66060  53.1619 251.0197 0001791  92.0965 268.0241 15.30221847 34608","mean_motion":15.30221847,"eccentricity":0.0001791,"inclination_deg":53.1619,"raan_deg":251.0197,"arg_perigee_deg":92.0965,"mean_anomaly_deg":268.0241,"bstar":0.00055045,"rev_number":3460,"period_min":94.104002163028,"perigee_km":473.9224153185,"apogee_km":476.37726266423,"semimajor_km":6853.2868389914,"source":"CELESTRAK","updated_at":"2026-05-25T13:38:21.020146Z"}}